Location: *
(45.4590°N, 16.3650°E)
Time: 13:17:10
(UTC+00:00)

IRS-1C Rocket - Pass Details

Date: 17 January 2020
Orbit: 801 x 805 km, 99.0° (Epoch: 20 February)

Event Time Altitude Azimuth Distance (km) Brightness Sun altitude
Rises 16:23:26 0° 168° (SSE) 3,297 7.4 -7.8°
Reaches altitude 10° 16:25:45 10° 169° (S) 2,371 6.7 -8.2°
Maximum altitude 16:31:00 77° 255° (WSW) 825 4.3 -9.0°
Drops below altitude 10° 16:36:17 10° 343° (NNW) 2,387 6.5 -9.9°
Sets 16:38:38 0° 345° (NNW) 3,322 7.3 -10.3°
